Vorticity
9 9 10 8 6 7 5 4 6 5 6 6 5 4 7 7 5 4 4 4 3 5 8 5 8 5 7 4 3 6 8 6 4 4 4 4 6 6 5 6 5 5 5
8 6 6 6 9 8 9 7 9 7 7 9 7 3 2 7 6 5 5 5 2 4 6 6 7 9 7 9 4 4 7 6 5 4 4 5 5 5 5 5 5 5 6
2 5 6 9 6 6 4 5 4 4 7 7 5 6 6 4 1 7 5 5 5 3 4 5 8 7 3 12 7 4 6 5 6 5 5 5 5 5 5 4 5 5 6
12 8 3 -0 1 6 9 9 5 4 3 3 7 9 3 -3 1 3 5 4 7 6 5 5 9 7 8 4 7 5 5 4 6 6 6 5 5 5 5 4 4 5 5
13 15 17 18 9 2 3 7 12 6 6 7 3 4 6 6 17 1 5 3 2 4 6 6 2 7 10 1 13 10 6 4 5 6 9 6 5 5 5 5 4 5 5
0 1 3 8 19 19 14 6 4 3 7 7 6 6 7 7 4 5 3 4 4 6 2 7 13 4 7 13 2 1 9 5 6 5 9 7 5 5 6 5 5 5 5
5 6 6 4 -2 -0 5 13 17 13 8 5 4 6 8 6 5 6 3 2 3 5 -2 7 6 3 5 -5 16 9 9 6 6 5 6 9 6 5 6 5 5 6 4
7 -0 2 8 3 2 3 6 5 12 18 22 -8 12 1 9 -1 9 8 3 13 -1 7 4 5 2 9 9 18 6 8 8 5 5 7 9 6 5 6 5 6 5 4
5 5 1 0 3 4 3 5 6 13 3 -4 39 43 3 9 35 1 -13 18 25 13 12 20 6 9 14 20 14 11 10 5 4 5 8 9 8 6 7 5 5 4 4
17 12 2 3 12 5 8 14 4 16 17 1 19 -27 39 45 17 -3 44 -30 -43 7 19 68 59 17 -2 4 5 3 10 21 7 3 9 1 1 7 8 6 5 4 4
17 18 22 27 30 26 14 6 19 26 28 19 -13 12 -33 29 7 72 36 48 -7 -20 -15 48 -27 15 3 12 -10 6 12 -4 22 4 2 1 4 4 9 7 5 5 5
29 27 25 25 23 15 25 28 23 27 22 31 33 -0 14 22 -2 -24 32 37 21 32 77 -7 6 22 12 -3 30 -1 -7 2 11 -0 9 7 9 1 3 8 6 6 5
19 19 13 16 27 33 -1 -1 8 3 29 8 3 26 17 34 -8 17 18 55 34 17 11 -2 -8 14 29 10 -2 11 17 3 33 -1 -5 9 10 11 -2 -1 8 7 5
11 22 19 10 6 23 17 21 14 19 -1 22 10 23 28 9 27 4 15 -6 31 -19 13 28 0 21 16 6 3 4 7 13 -6 18 2 -7 4 9 -6 13 4 7 6
14 12 1 2 19 18 12 6 -3 47 23 13 4 -68 8 11 29 65 41 -0 35 15 36 16 10 16 7 19 22 17 -10 15 11 10 17 30 10 -0 14 -5 27 8 4
-2 9 10 8 7 5 7 15 8 4 40 35 46 50 15 20 16 -14 -1 38 -5 50 19 14 2 -7 25 15 20 -15 22 15 5 13 12 17 4 10 -6 7 20 16 2
18 16 16 17 14 13 7 4 23 13 7 24 7 10 14 22 9 27 2 -7 19 1 40 14 25 -7 -2 -2 23 21 3 -8 11 6 -0 -2 1 -6 1 16 6 43 0
-0 -1 -1 4 3 2 8 6 6 20 38 5 15 9 8 10 -1 41 32 12 11 14 18 42 1 70 17 24 29 24 5 12 5 -0 19 -11 6 22 -5 15 12 52 3
1 4 1 1 2 8 9 9 10 10 15 18 13 9 18 10 7 9 22 20 22 26 19 26 7 33 17 -5 16 16 13 4 12 9 21 4 17 9 3 7 8 45 3
4 -1 0 6 13 12 12 12 14 11 14 12 14 21 20 14 7 6 23 1 33 6 14 27 11 29 32 18 11 26 -27 7 12 10 12 9 2 11 11 3 14 29 6
3 4 13 15 15 14 15 16 17 16 13 11 9 11 16 13 10 19 -3 11 -9 45 2 27 26 35 -0 14 15 19 28 5 -1 -3 3 18 6 -3 5 5 10 27 4
10 13 12 11 10 10 10 9 11 12 13 12 12 9 7 11 17 12 17 27 13 31 33 2 8 7 27 21 5 20 3 28 36 -11 37 12 -5 6 9 4 4 18 16
13 9 7 6 5 6 6 7 8 9 8 5 8 18 18 8 7 12 15 6 23 11 15 29 17 19 11 16 24 21 11 23 3 6 19 0 3 7 3 3 7 17 15
7 9 8 9 9 10 11 10 10 11 9 8 11 8 12 18 20 11 8 17 1 7 2 11 -2 7 30 5 8 4 30 19 11 -5 59 -13 13 1 -1 5 6 13 23
9 7 6 7 8 9 10 9 9 9 7 10 10 6 6 8 8 14 20 9 13 10 4 4 -2 18 4 -6 -5 4 28 26 24 30 -12 10 9 -3 8 9 22 5 7
6 8 8 9 9 9 8 8 8 9 9 9 10 6 6 8 11 10 11 18 13 8 15 13 17 0 1 6 27 1 18 39 42 20 -14 30 17 -11 6 6 9 2 22
Height
3155 3154 3155 3155 3155 3154 3153 3153 3153 3153 3154 3155 3155 3155 3156 3156 3155 3154 3155 3157 3159 3159 3161 3163 3165 3166 3168 3168 3169 3170 3170 3171 3173 3174 3175 3175 3177 3178 3178 3180 3181 3181 3182
3146 3146 3146 3146 3147 3145 3145 3145 3146 3145 3146 3146 3147 3147 3149 3150 3149 3148 3147 3148 3151 3152 3155 3157 3160 3161 3162 3164 3165 3166 3167 3168 3169 3170 3173 3174 3174 3175 3177 3178 3179 3179 3180
3139 3138 3137 3136 3137 3136 3135 3136 3136 3135 3136 3136 3137 3139 3141 3141 3140 3139 3139 3140 3141 3144 3147 3149 3153 3155 3156 3158 3160 3161 3163 3164 3165 3166 3168 3170 3171 3171 3172 3174 3176 3177 3177
3130 3129 3127 3127 3127 3126 3125 3124 3124 3125 3125 3126 3127 3128 3129 3132 3132 3131 3131 3132 3132 3135 3138 3141 3144 3147 3150 3151 3153 3155 3157 3160 3161 3162 3164 3166 3168 3169 3170 3171 3172 3174 3174
3121 3120 3119 3118 3116 3115 3114 3114 3113 3113 3113 3115 3116 3118 3118 3119 3120 3121 3120 3121 3123 3125 3127 3132 3135 3138 3141 3143 3145 3147 3150 3153 3154 3157 3159 3161 3163 3165 3167 3168 3169 3170 3172
3115 3113 3110 3108 3107 3105 3103 3102 3101 3101 3099 3100 3104 3104 3105 3106 3106 3107 3107 3109 3112 3114 3117 3119 3124 3126 3131 3134 3137 3140 3142 3145 3149 3150 3152 3155 3157 3159 3162 3164 3165 3166 3168
3104 3101 3099 3098 3096 3092 3091 3091 3090 3089 3087 3088 3089 3088 3089 3090 3090 3091 3092 3092 3095 3099 3104 3106 3109 3114 3119 3123 3127 3130 3133 3136 3141 3143 3145 3148 3152 3155 3157 3158 3160 3162 3164
3091 3088 3085 3083 3081 3077 3076 3075 3074 3072 3072 3075 3076 3075 3070 3073 3073 3074 3079 3079 3081 3086 3090 3094 3096 3100 3106 3111 3116 3120 3124 3128 3133 3136 3139 3142 3145 3149 3152 3154 3155 3157 3159
3076 3071 3067 3064 3061 3061 3059 3058 3058 3057 3057 3061 3058 3056 3053 3048 3053 3062 3063 3065 3066 3069 3077 3081 3084 3088 3092 3098 3104 3108 3112 3118 3123 3128 3131 3135 3138 3142 3146 3149 3151 3153 3155
3061 3057 3052 3048 3044 3040 3039 3040 3040 3040 3041 3042 3042 3047 3042 3040 3028 3036 3046 3045 3046 3050 3059 3061 3063 3073 3081 3086 3094 3098 3102 3107 3113 3118 3123 3127 3131 3135 3139 3142 3145 3148 3151
3045 3042 3036 3031 3028 3025 3022 3020 3021 3023 3025 3025 3025 3025 3026 3023 3017 3021 3013 3034 3029 3034 3039 3046 3050 3059 3065 3073 3079 3087 3090 3096 3101 3108 3112 3119 3123 3127 3132 3136 3139 3142 3146
3029 3025 3022 3020 3015 3012 3009 3007 3008 3008 3010 3009 3010 3005 3006 3007 3010 3008 3011 3014 3019 3025 3026 3030 3037 3045 3051 3057 3065 3074 3079 3083 3090 3097 3102 3109 3115 3119 3124 3129 3132 3135 3139
3016 3014 3012 3010 3006 3004 3002 2998 2997 2998 2996 2994 2996 2995 2991 2991 2992 2996 2994 2999 3005 3012 3014 3020 3025 3030 3037 3047 3054 3061 3067 3072 3079 3085 3091 3098 3104 3109 3115 3121 3126 3129 3132
3006 3004 3003 3002 2999 2996 2994 2991 2987 2985 2984 2983 2985 2983 2982 2976 2979 2980 2982 2985 2990 2995 2998 3003 3009 3014 3024 3032 3042 3051 3056 3061 3068 3073 3081 3088 3094 3101 3107 3112 3118 3122 3126
3002 3000 2998 2996 2993 2988 2986 2983 2980 2974 2972 2968 2968 2971 2971 2969 2965 2974 2972 2968 2978 2973 2978 2989 2991 2999 3008 3020 3028 3037 3042 3049 3056 3063 3070 3078 3084 3091 3097 3104 3108 3114 3119
2998 2995 2992 2991 2988 2985 2981 2978 2973 2968 2962 2960 2956 2958 2962 2962 2960 2958 2955 2959 2954 2964 2968 2976 2981 2988 2996 3008 3017 3024 3029 3036 3043 3052 3060 3067 3076 3080 3088 3093 3097 3104 3111
2994 2991 2989 2987 2983 2980 2977 2973 2968 2964 2959 2953 2951 2952 2953 2954 2957 2951 2953 2954 2947 2945 2953 2960 2967 2976 2983 2995 3002 3011 3020 3024 3032 3040 3050 3058 3066 3072 3078 3083 3087 3093 3102
2990 2988 2986 2983 2980 2976 2972 2968 2964 2958 2953 2950 2947 2945 2943 2943 2945 2944 2941 2940 2942 2942 2941 2948 2957 2963 2970 2980 2990 2998 3007 3015 3021 3028 3038 3048 3056 3062 3069 3075 3078 3083 3093
2986 2984 2981 2978 2975 2971 2967 2963 2959 2954 2950 2946 2943 2940 2937 2935 2936 2935 2932 2935 2938 2941 2939 2939 2948 2953 2961 2967 2974 2983 2995 3003 3011 3020 3027 3037 3045 3053 3060 3065 3070 3075 3081
2981 2979 2976 2973 2969 2965 2961 2958 2954 2950 2946 2942 2938 2935 2932 2932 2932 2932 2931 2927 2930 2932 2933 2936 2938 2944 2952 2959 2965 2971 2981 2989 3000 3008 3016 3026 3033 3043 3051 3056 3061 3067 3074
2976 2973 2970 2967 2963 2960 2956 2952 2949 2946 2943 2939 2935 2932 2928 2927 2928 2927 2926 2920 2925 2925 2928 2932 2936 2937 2941 2949 2955 2961 2970 2980 2988 2997 3005 3013 3020 3029 3039 3048 3052 3060 3066
2970 2967 2964 2961 2958 2954 2952 2949 2945 2942 2938 2934 2932 2929 2927 2926 2924 2922 2919 2919 2916 2920 2924 2927 2930 2932 2935 2942 2947 2954 2961 2967 2976 2985 2994 3002 3011 3018 3028 3038 3045 3052 3059
2964 2962 2959 2956 2953 2950 2948 2945 2941 2938 2934 2930 2927 2925 2923 2920 2919 2919 2917 2916 2916 2919 2921 2924 2926 2928 2932 2935 2941 2945 2952 2961 2971 2979 2986 2994 3002 3012 3020 3028 3037 3045 3051
2959 2957 2954 2951 2948 2945 2942 2939 2937 2933 2930 2926 2921 2919 2916 2916 2915 2915 2915 2916 2918 2920 2918 2920 2921 2923 2926 2930 2939 2943 2947 2955 2961 2970 2978 2985 2994 3004 3013 3022 3030 3037 3043
2953 2951 2948 2945 2943 2940 2937 2934 2931 2929 2926 2923 2919 2913 2910 2908 2908 2909 2910 2913 2912 2914 2911 2912 2917 2921 2919 2927 2930 2934 2941 2945 2953 2961 2968 2977 2984 2995 3004 3013 3022 3030 3037
2947 2944 2941 2939 2937 2934 2931 2928 2926 2923 2921 2919 2916 2911 2908 2903 2899 2899 2901 2902 2901 2897 2902 2906 2911 2915 2919 2922 2925 2932 2936 2940 2949 2954 2958 2968 2977 2987 2994 3004 3013 3021 3030